Jackson, MS

9:07 AM CST on December 18, 2017 (GMT -0600)
Jackson-Evers International

Weather History for KJAN - October, 2010

Change the Weather History Date:

Monday, October 4, 2010

  Actual Average Record
Temperature  
Mean Temperature 60 °F 69 °F  
Max Temperature 73 °F 81 °F 98 °F (1911)
Min Temperature 46 °F 57 °F 38 °F (1987)
Degree Days  
Heating Degree Days 5 1  
Month to date heating degree days 5 4  
Since 1 July heating degree days 5 11  
Cooling Degree Days 0 5  
Month to date cooling degree days 10 23  
Year to date cooling degree days 2630 2149  
Growing Degree Days 10 (Base 50)    
Moisture  
Dew Point 36 °F    
Average Humidity 46    
Maximum Humidity 71    
Minimum Humidity 20    
Precipitation  
Precipitation 0.00 in 0.11 in 6.97 in (1964)
Month to date precipitation 0.00 0.47  
Year to date precipitation 35.28 40.78  
Sea Level Pressure  
Sea Level Pressure 30.26 in    
Wind  
Wind Speed 7 mph (NNE)    
Max Wind Speed 18 mph    
Max Gust Speed 28 mph    
Visibility 10 miles    
Events      
T = Trace of Precipitation, MM = Missing Value Source: NWS Daily Summary

Daily Weather History Graph

Daily Weather History Graph

Search for Another Location

Airport or City:

Trip Planner

Search our weather history database for the weather conditions in past years. The results will help you decide how hot, cold, wet, or windy it might be!

Date:

Astronomy

Oct. 04, 2010 Rise Set
Actual Time 6:56 AM CDT 6:41 PM CDT
Civil Twilight 6:31 AM CDT 7:05 PM CDT
Nautical Twilight 6:03 AM CDT 7:34 PM CDT
Astronomical Twilight 5:34 AM CDT 8:02 PM CDT
Moon 3:17 AM CDT (10/4) 4:30 PM CDT (10/4)
Length of Visible Light 12h 33m
Length of Day
11h 44m
Waning Crescent, 14% of the Moon is Illuminated
Oct 4
Waning Crescent
Oct 7
New
Oct 14
First Quarter
Oct 22
Full
Oct 30
Last Quarter

Hourly Weather History & Observations

Time (CDT) Temp. Dew Point Humidity Pressure Visibility Wind Dir Wind Speed Gust Speed Precip Events Conditions
12:54 AM 55.9 °F 37.9 °F 51% 30.22 in 10.0 mi NE 8.1 mph - N/A   Clear
1:54 AM 55.0 °F 37.9 °F 53% 30.22 in 10.0 mi NNE 9.2 mph - N/A   Clear
2:54 AM 53.1 °F 37.9 °F 57% 30.22 in 10.0 mi NE 3.5 mph - N/A   Clear
3:54 AM 48.9 °F 39.0 °F 69% 30.23 in 10.0 mi NE 3.5 mph - N/A   Clear
4:54 AM 50.0 °F 39.0 °F 66% 30.23 in 10.0 mi NNE 5.8 mph - N/A   Clear
5:54 AM 48.9 °F 37.9 °F 66% 30.25 in 10.0 mi NNE 4.6 mph - N/A   Clear
6:54 AM 48.0 °F 37.9 °F 68% 30.27 in 10.0 mi North 3.5 mph - N/A   Clear
7:54 AM 51.1 °F 39.9 °F 66% 30.29 in 10.0 mi North 4.6 mph - N/A   Clear
8:54 AM 55.9 °F 39.0 °F 53% 30.31 in 10.0 mi NNE 9.2 mph - N/A   Clear
9:54 AM 59.0 °F 39.0 °F 48% 30.32 in 10.0 mi NNE 5.8 mph - N/A   Clear
10:54 AM 63.0 °F 37.9 °F 40% 30.32 in 10.0 mi North 8.1 mph - N/A   Clear
11:54 AM 66.0 °F 36.0 °F 33% 30.30 in 10.0 mi NNE 10.4 mph 16.1 mph N/A   Clear
12:54 PM 68.0 °F 34.0 °F 28% 30.28 in 10.0 mi NNE 10.4 mph - N/A   Clear
1:54 PM 70.0 °F 32.0 °F 25% 30.25 in 10.0 mi NNE 10.4 mph 18.4 mph N/A   Clear
2:54 PM 72.0 °F 32.0 °F 23% 30.23 in 10.0 mi North 11.5 mph 20.7 mph N/A   Clear
3:54 PM 72.0 °F 28.9 °F 20% 30.22 in 10.0 mi North 12.7 mph 20.7 mph N/A   Clear
4:54 PM 71.1 °F 30.9 °F 23% 30.21 in 10.0 mi North 12.7 mph - N/A   Clear
5:54 PM 69.1 °F 30.9 °F 24% 30.21 in 10.0 mi NNE 11.5 mph - N/A   Clear
6:54 PM 63.0 °F 34.0 °F 34% 30.23 in 10.0 mi North 9.2 mph - N/A   Clear
7:54 PM 60.1 °F 35.1 °F 39% 30.24 in 10.0 mi North 4.6 mph - N/A   Clear
8:54 PM 57.0 °F 36.0 °F 45% 30.26 in 10.0 mi North 4.6 mph - N/A   Clear
9:54 PM 53.1 °F 37.9 °F 57% 30.27 in 10.0 mi Calm Calm - N/A   Clear
10:54 PM 53.1 °F 37.0 °F 55% 30.28 in 10.0 mi NE 4.6 mph - N/A   Clear
11:54 PM 54.0 °F 34.0 °F 47% 30.28 in 10.0 mi Calm Calm - N/A   Clear